[[{"header":{"parameterUnit":"m.s-1","parameterCategory":1,"la1":30.2991,"la2":30.254,"lo1":-89.0895,"lo2":-89.0444,"dy":0.0017,"dx":0.0017,"nx":28,"ny":28,"refTime":"2024-07-29T09:00:00:Z","depth":0,"parameterNumber":2,"parameterNumberName":"U-component_of_WINDS"},"data":[0,0,0,0,0,0,0,0,0,0,0,0,0,0,0,0,0,0,0,0,0,0,0,0,0,0,0,0,0,0,0,0,0,0,0,0,0,0,0,0,0,0,0,0,0,0,0,0,0,0,0,0,0,0,0,0,0,0,2.9108,2.9108,0,2.916,2.916,2.9161,2.914,2.9139,2.9137,2.9136,2.9191,2.9193,2.9196,0,0,0,0,0,0,0,0,0,0,0,0,0,2.8994,2.8996,2.9108,2.9108,2.9109,2.916,2.916,2.9161,2.914,2.9139,2.9137,2.9136,2.919,2.9193,2.9196,0,0,0,0,0,0,0,0,0,0,0,0,0,2.9044,2.8997,2.9108,2.9105,2.9105,2.9159,2.916,2.9161,2.914,2.9139,2.9137,2.9135,2.9189,2.9193,2.9197,2.9258,0,0,2.9209,2.921,0,0,0,0,0,0,0,0,2.9042,2.9049,2.9105,2.9105,2.9105,2.9141,2.914,2.9194,2.9141,2.9127,2.9136,2.9134,2.9176,2.9181,2.9195,2.926,2.9262,2.9209,2.9211,2.9213,2.9214,0,0,0,0,0,0,0,2.9038,2.9046,2.9128,2.9105,2.9106,2.9102,2.9107,2.915,2.9161,2.9128,2.9127,2.9133,2.9176,2.9191,2.9196,2.9263,2.9209,2.9212,2.9215,2.9216,2.9384,2.9386,0,0,0,0,0,0,2.9034,2.9043,2.9127,2.913,2.9068,2.9105,2.9111,2.9132,2.9161,2.9163,2.9135,2.9132,2.9185,2.9191,2.9198,2.9273,2.9213,2.9217,2.9219,2.9382,2.9385,2.9387,0,0,0,0,0,0,2.9032,2.9042,2.9125,2.9086,2.9097,2.9109,2.9133,2.9134,2.9149,2.9166,2.9168,2.9148,2.9184,2.9192,2.9243,2.9274,2.9218,2.9222,2.938,2.9383,2.9386,2.9422,0,0,0,0,0,0,2.9029,2.9041,2.9063,2.9087,2.9099,2.9169,2.9134,2.9136,2.9155,2.9152,2.9178,2.9181,2.9183,2.9238,2.9247,2.9279,2.9225,2.9377,2.9381,2.9385,2.9418,2.9426,2.9433,0,0,0,0,0,2.9025,2.9071,2.9064,2.9075,2.9127,2.917,2.9177,2.9178,2.9158,2.9181,2.9193,2.918,2.9269,2.9243,2.9254,2.9287,2.9375,2.938,2.9385,2.9415,2.9424,2.9433,0,0,0,0,0,0,2.905,2.9074,2.9067,2.9122,2.9145,2.9167,2.9196,2.9188,2.9217,2.9213,2.9213,2.9219,2.9273,2.9285,2.9255,2.9349,2.9319,2.9326,2.9339,2.9348,2.9355,2.9351,2.9228,0,0,0,0,0,2.9062,2.9095,2.9114,2.9161,2.9173,2.9183,2.9202,2.9201,2.9224,2.9233,2.9248,2.9272,2.9305,2.9327,2.9359,2.942,2.9426,2.9448,2.9455,2.9461,2.9468,2.9503,2.9514,2.9403,2.9403,2.9403,0,0,2.9088,2.9105,2.9125,2.9167,2.9184,2.9219,2.919,2.9228,2.9255,2.9239,2.9288,2.9301,2.9327,2.9384,2.941,2.9396,2.95,2.9467,2.9472,2.9475,2.9509,2.952,2.9529,2.9406,2.9406,2.9405,0,0,2.9152,2.9167,2.9209,2.9227,2.9254,2.9261,2.9271,2.9295,2.9302,2.9352,2.9342,2.9374,2.9431,2.9451,2.9469,2.9544,2.9535,2.9555,2.9593,2.9628,2.9636,2.9644,2.9672,2.9682,2.9561,2.9561,2.9561,0,2.918,2.9231,2.9232,2.9271,2.9291,2.9279,2.9322,2.934,2.9376,2.939,2.9374,2.9447,2.9464,2.9527,2.9546,2.956,2.9573,2.9551,2.9635,2.9643,2.965,2.9677,2.9688,2.9563,2.9563,2.9563,2.9562,0,2.9266,2.9302,2.9333,2.9368,2.9391,2.9432,2.9441,2.9464,2.9462,2.9471,2.9524,2.9544,2.958,2.9595,2.9593,2.9659,2.9649,2.9634,2.9605,2.9663,2.9688,2.9699,2.9566,2.9566,2.9565,2.9564,0,0,2.9346,2.9383,2.9394,2.9411,2.9441,2.9469,2.9511,2.9547,2.9568,2.9594,2.963,2.968,2.9667,2.9687,2.9688,2.9718,2.9779,2.9699,2.97,2.9714,2.9854,2.9866,2.9878,2.9773,2.9775,2.9776,2.9853,0,2.9413,2.9486,2.9489,2.9555,2.959,2.9581,2.9618,2.9641,2.9651,2.9683,2.9694,2.973,2.9709,2.9722,2.9752,2.9765,2.9807,2.9759,2.9808,2.981,2.9802,2.9891,2.9903,2.9974,2.9862,2.9864,2.9865,0,2.9501,2.953,2.96,2.9627,2.9642,2.9675,2.9709,2.974,2.9767,2.9772,2.9796,2.9793,2.9838,2.9807,2.987,2.9838,2.9858,2.9868,2.9871,2.9876,2.9841,2.9899,2.9996,3.0007,2.9881,2.9879,2.9878,0,2.9554,2.9611,2.9661,2.9675,2.9708,2.9732,2.9746,2.9771,2.9794,2.9824,2.9839,2.9875,2.9894,2.9923,2.993,2.9907,2.9994,2.9963,3.0001,3.0001,3.0019,3.0018,3.0122,3.0031,3.0031,3.0031,3.0031,0,2.9629,2.9673,2.9685,2.9716,2.9766,2.977,2.9819,2.9832,2.9855,2.989,2.9884,2.9917,2.9924,2.9959,2.9965,3.0017,3.0026,3.0033,3.0034,3.0034,3.0033,3.0047,3.0043,3.0034,3.0033,3.0033,3.0032,0,2.9696,2.9706,2.976,2.9787,2.9795,2.9831,2.9855,2.9885,2.9896,2.9939,2.995,2.9967,3.0007,3.0018,3.0066,3.0071,3.0133,3.0129,3.0123,3.0123,3.0161,3.0158,3.0278,3.0294,3.0192,3.0193,3.0194,0,2.9743,2.9777,2.9808,2.9831,2.9847,2.9883,2.9906,2.9913,2.9937,2.9972,2.9999,3.0039,3.0072,3.0138,3.0155,3.0193,3.019,3.023,3.0196,3.0195,3.0192,3.0191,3.0195,3.0236,3.0237,3.0238,3.0239,0,2.9827,2.9831,2.9864,2.99,2.9928,2.9957,2.9984,3.0003,3.0014,3.0042,3.0084,3.0109,3.0159,3.02,3.0239,3.0255,3.025,3.025,3.0261,3.0261,3.0257,3.0261,3.0142,3.0247,3.0246,3.0245,3.0245,3.0245,2.9887,2.9917,2.9944,2.9982,3.0004,3.003,3.0061,3.0076,3.011,3.0152,3.0154,3.02,3.0229,3.028,3.0299,3.0336,3.0324,3.034,3.0344,3.0348,3.0352,3.0251,3.0343,3.0343,3.0343,3.0343,3.0343,0,2.9971,2.9989,3.0023,3.0063,3.0093,3.0085,3.0116,3.0142,3.0183,3.021,3.0242,3.0292,3.0332,3.0353,3.0393,3.0419,3.0418,3.043,3.0428,3.0433,3.0359,3.0346,3.043,3.043,3.043,3.043,3.043,3.043,3.0018,3.007,3.0078,3.0141,3.0158,3.0203,3.0222,3.0247,3.0269,3.0324,3.0358,3.0371,3.0397,3.0439,3.0477,3.0482,3.0498,3.0511,3.0515,3.0446,3.0437,3.0429,3.0417,3.0514,3.0514,3.0586,3.0586,3.0587]},{"header":{"parameterUnit":"m.s-1","parameterCategory":1,"la1":30.2991,"la2":30.254,"lo1":-89.0895,"lo2":-89.0444,"dy":0.0017,"dx":0.0017,"nx":28,"ny":28,"refTime":"2024-07-29T09:00:00:Z","depth":0,"parameterNumber":3,"parameterNumberName":"V-component_of_WINDS"},"data":[0,0,0,0,0,0,0,0,0,0,0,0,0,0,0,0,0,0,0,0,0,0,0,0,0,0,0,0,0,0,0,0,0,0,0,0,0,0,0,0,0,0,0,0,0,0,0,0,0,0,0,0,0,0,0,0,0,0,-1.9975,-1.9975,0,-2.0029,-2.003,-2.0031,-2.0035,-2.0034,-2.0034,-2.0033,-2.0088,-2.009,-2.0092,0,0,0,0,0,0,0,0,0,0,0,0,0,-1.9874,-1.9876,-1.9975,-1.9975,-1.9976,-2.0029,-2.003,-2.0031,-2.0035,-2.0034,-2.0033,-2.0033,-2.0088,-2.009,-2.0092,0,0,0,0,0,0,0,0,0,0,0,0,0,-1.9922,-1.9876,-1.9974,-1.9984,-1.9986,-2.0029,-2.003,-2.0031,-2.0035,-2.0034,-2.0033,-2.0032,-2.0087,-2.009,-2.0093,-2.013,0,0,-2.0102,-2.0103,0,0,0,0,0,0,0,0,-1.9919,-1.9926,-1.9982,-1.9984,-1.9986,-2.0024,-2.0015,-2.0064,-2.0035,-2.0016,-2.0033,-2.0032,-2.0068,-2.0072,-2.0084,-2.0132,-2.0134,-2.0102,-2.0104,-2.0105,-2.0106,0,0,0,0,0,0,0,-1.9916,-1.9924,-1.9996,-1.9983,-1.9985,-1.9986,-1.9992,-2.0024,-2.0046,-2.0018,-2.0018,-2.0025,-2.0068,-2.0082,-2.0086,-2.0135,-2.0102,-2.0105,-2.0107,-2.0108,-2.0218,-2.0219,0,0,0,0,0,0,-1.9911,-1.9921,-1.9995,-1.9998,-1.995,-1.9989,-1.9996,-2.0013,-2.0046,-2.005,-2.0026,-2.0025,-2.0077,-2.0082,-2.0088,-2.0135,-2.0105,-2.0108,-2.011,-2.0217,-2.0218,-2.022,0,0,0,0,0,0,-1.9909,-1.9917,-1.9992,-1.996,-1.9969,-1.9992,-2.0011,-2.0014,-2.0028,-2.0052,-2.0056,-2.0035,-2.0076,-2.0083,-2.012,-2.0136,-2.011,-2.0112,-2.0216,-2.0218,-2.0219,-2.0227,0,0,0,0,0,0,-1.9906,-1.9917,-1.993,-1.996,-1.9971,-2.0023,-2.0012,-2.0016,-2.0033,-2.0032,-2.0062,-2.0066,-2.0076,-2.0115,-2.0123,-2.014,-2.0115,-2.0214,-2.0217,-2.0219,-2.0226,-2.0229,-2.0232,0,0,0,0,0,-1.9902,-1.993,-1.9931,-1.994,-1.9989,-2.0024,-2.003,-2.0042,-2.0034,-2.0049,-2.0065,-2.0065,-2.0133,-2.0119,-2.0127,-2.0146,-2.0213,-2.0216,-2.0218,-2.0224,-2.0229,-2.0232,0,0,0,0,0,0,-1.9901,-1.9934,-1.9936,-1.9974,-1.9996,-2.0025,-2.0043,-2.0046,-2.0071,-2.0069,-2.0083,-2.0089,-2.0126,-2.0139,-2.0122,-2.0185,-2.0173,-2.0177,-2.0174,-2.0178,-2.0181,-2.0178,-2.0117,0,0,0,0,0,-1.9906,-1.9932,-1.9959,-1.999,-2.0001,-2.002,-2.0036,-2.0043,-2.0067,-2.0077,-2.0095,-2.0118,-2.0145,-2.0162,-2.0188,-2.0228,-2.0235,-2.0245,-2.0248,-2.0251,-2.0254,-2.0278,-2.0284,-2.0228,-2.0228,-2.0228,0,0,-1.9914,-1.9936,-1.9951,-1.999,-2.0008,-2.0036,-2.0028,-2.0057,-2.0077,-2.0081,-2.0117,-2.0131,-2.0158,-2.0196,-2.0214,-2.0209,-2.0271,-2.0254,-2.0256,-2.0258,-2.0281,-2.0287,-2.0291,-2.023,-2.0229,-2.0229,0,0,-1.9945,-1.9963,-1.9992,-2.0011,-2.0039,-2.0052,-2.0059,-2.0088,-2.0098,-2.0134,-2.0138,-2.0163,-2.0208,-2.0228,-2.0244,-2.0284,-2.0285,-2.0292,-2.0308,-2.0332,-2.0336,-2.034,-2.0356,-2.0361,-2.0295,-2.0295,-2.0295,0,-1.9953,-1.9994,-2.0006,-2.0035,-2.0053,-2.0059,-2.0089,-2.0106,-2.0141,-2.0153,-2.0147,-2.0206,-2.0224,-2.0268,-2.0279,-2.0291,-2.03,-2.0289,-2.0334,-2.0339,-2.0342,-2.0358,-2.0363,-2.0296,-2.0296,-2.0296,-2.0296,0,-2.0002,-2.0031,-2.0051,-2.0086,-2.0106,-2.0135,-2.0152,-2.0171,-2.0177,-2.0191,-2.0229,-2.0251,-2.0283,-2.0294,-2.0299,-2.0339,-2.0335,-2.0332,-2.032,-2.0348,-2.0363,-2.0369,-2.0297,-2.0297,-2.0297,-2.0296,0,0,-2.0033,-2.0076,-2.0083,-2.01,-2.0132,-2.0155,-2.0185,-2.0217,-2.0233,-2.0257,-2.0284,-2.0323,-2.0321,-2.0339,-2.0347,-2.0367,-2.04,-2.0361,-2.0362,-2.0368,-2.0447,-2.045,-2.0457,-2.0401,-2.0402,-2.0403,-2.0445,0,-2.0068,-2.0122,-2.0135,-2.0182,-2.0209,-2.0216,-2.0242,-2.0265,-2.0279,-2.0305,-2.032,-2.0349,-2.0342,-2.0354,-2.0374,-2.0391,-2.0416,-2.0388,-2.0426,-2.0427,-2.042,-2.0464,-2.0468,-2.0507,-2.0451,-2.0452,-2.0452,0,-2.0116,-2.0143,-2.0192,-2.0223,-2.0235,-2.0259,-2.029,-2.0314,-2.0341,-2.035,-2.0371,-2.0378,-2.041,-2.0397,-2.0442,-2.0424,-2.044,-2.0451,-2.0453,-2.0457,-2.0442,-2.0471,-2.0519,-2.0525,-2.0461,-2.0461,-2.046,0,-2.0135,-2.0183,-2.022,-2.0234,-2.027,-2.0287,-2.0303,-2.0329,-2.0348,-2.0375,-2.0388,-2.0418,-2.0435,-2.0458,-2.0473,-2.0462,-2.0519,-2.0506,-2.0528,-2.0527,-2.054,-2.0539,-2.0592,-2.0548,-2.0548,-2.0548,-2.0548,0,-2.0173,-2.0203,-2.0229,-2.0251,-2.0286,-2.0301,-2.0335,-2.0352,-2.0375,-2.0401,-2.0408,-2.0433,-2.0451,-2.0478,-2.049,-2.0527,-2.0534,-2.0543,-2.0546,-2.0543,-2.0542,-2.0554,-2.0552,-2.055,-2.0549,-2.0549,-2.0549,0,-2.02,-2.0218,-2.0259,-2.0291,-2.03,-2.0324,-2.0351,-2.0374,-2.0389,-2.0422,-2.0431,-2.0454,-2.0487,-2.0504,-2.0545,-2.0553,-2.0595,-2.0596,-2.0586,-2.0588,-2.0609,-2.0607,-2.0673,-2.0683,-2.0631,-2.0632,-2.0632,0,-2.0224,-2.0248,-2.0283,-2.0301,-2.0318,-2.0347,-2.0367,-2.0383,-2.0404,-2.0437,-2.0456,-2.0489,-2.0517,-2.0569,-2.059,-2.0621,-2.0624,-2.0644,-2.0628,-2.0625,-2.0626,-2.0625,-2.0628,-2.0647,-2.0648,-2.0648,-2.0649,0,-2.0265,-2.0273,-2.0301,-2.0334,-2.0357,-2.0383,-2.0409,-2.0423,-2.0444,-2.0467,-2.0501,-2.0522,-2.0565,-2.0598,-2.0632,-2.0648,-2.0653,-2.0654,-2.0661,-2.0658,-2.0652,-2.0657,-2.0595,-2.0652,-2.0652,-2.0651,-2.0651,-2.0651,-2.0292,-2.0314,-2.0343,-2.0375,-2.0396,-2.042,-2.0444,-2.0462,-2.0491,-2.0527,-2.0535,-2.0571,-2.0599,-2.0645,-2.0663,-2.0692,-2.0688,-2.0698,-2.07,-2.0703,-2.0705,-2.0647,-2.0698,-2.0698,-2.0698,-2.0698,-2.0698,0,-2.0334,-2.0353,-2.0382,-2.0419,-2.0444,-2.0446,-2.0475,-2.0497,-2.0529,-2.0555,-2.0582,-2.0622,-2.0655,-2.0679,-2.0713,-2.0732,-2.0735,-2.0741,-2.074,-2.0744,-2.0705,-2.0697,-2.0738,-2.0738,-2.0738,-2.0738,-2.0738,-2.0738,-2.0359,-2.0397,-2.0409,-2.0459,-2.0478,-2.0514,-2.0531,-2.0554,-2.0575,-2.062,-2.0647,-2.0663,-2.0689,-2.0725,-2.0756,-2.0762,-2.0775,-2.078,-2.0787,-2.0751,-2.0746,-2.0742,-2.0734,-2.0783,-2.0783,-2.0823,-2.0824,-2.0824]}]]